Regional Weather Roundup
Issued by NWS Little Rock, AR

Home | Current Version | Previous Version | Graphics & Text | Print | Product List | Glossary On
Versions: 1 2 3 4 5 6 7 8 9 10 11 12 13 14 15 16 17 18 19 20 21 22 23 24 25 26 27 28 29 30 31 32 33 34 35 36 37 38 39 40 41 42 43 44 45 46 47 48 49 50
000
ASUS44 KLZK 302205
RWRLZK

WEATHER ROUNDUP FOR ARKANSAS
NATIONAL WEATHER SERVICE LITTLE ROCK AR
500 PM CDT WED JUL 30 2014

NOTE: "FAIR" INDICATES FEW OR NO CLOUDS BELOW 12,000 FEET WITH NO
SIGNIFICANT WEATHER AND/OR OBSTRUCTIONS TO VISIBILITY.

ARZ001-003-010-029-302300-
NORTHWEST ARKANSAS

CITY           SKY/WX    TMP DP  RH WIND       PRES   REMARKS
FAYETTEVILLE   RAIN      68  68 100 CALM      30.09F FOG
FORT SMITH     LGT RAIN  73  70  90 SE6       30.06F FOG
HARRISON       RAIN      66  65  96 CALM      30.11F FOG
BENTONVILLE    CLOUDY    66  63  88 E7        30.11S
ROGERS         HVY RAIN  65  63  93 NE12      30.11S FOG
SILOAM SPGS    CLOUDY    70  63  78 SE7       30.10S
HIGHFILL       RAIN      69  68  96 SE6       30.09F FOG
SPRINGDALE     LGT RAIN  70  68  94 SW5       30.11F VSB 1/2
$$

ARZ004-005-016-302300-
NORTH CENTRAL ARKANSAS

CITY           SKY/WX    TMP DP  RH WIND       PRES   REMARKS
BATESVILLE     CLOUDY    70  66  88 SW5       30.09F
FLIPPIN        CLOUDY    68  66  94 CALM      30.09F
MTN HOME       LGT RAIN  68  67  96 S5        30.09F
$$

ARZ040-041-302300-
WEST CENTRAL ARKANSAS

CITY           SKY/WX    TMP DP  RH WIND       PRES   REMARKS
MENA           CLOUDY    72  70  94 CALM      30.09S
MOUNT IDA      LGT RAIN  69  66  90 VRB3      30.08F
$$

ARZ009-017-025-026-028-302300-
NORTHEAST ARKANSAS

CITY           SKY/WX    TMP DP  RH WIND       PRES   REMARKS
JONESBORO      CLOUDY    78  61  55 W9        30.07F
NEWPORT        CLOUDY    74  64  70 W8        30.10F
WALNUT RIDGE   CLOUDY    75  61  60 W12       30.08S
BLYTHEVILLE    CLOUDY    79  59  50 CALM      30.08F
$$

ARZ022-023-033-042-044-302300-
CENTRAL ARKANSAS

CITY           SKY/WX    TMP DP  RH WIND       PRES   REMARKS
LITTLE ROCK    CLOUDY    74  61  63 W7        30.10F
N LITTLE ROCK  CLOUDY    71  66  85 NW5       30.10F
JACKSONVILLE   DRIZZLE   74  64  72 W9        30.10S
SEARCY         LGT RAIN  73  64  73 CALM      30.11S
HOT SPRINGS    LGT RAIN  70  65  84 CALM      30.11S
RUSSELLVILLE   LGT RAIN  71  67  87 CALM      30.09F
CLINTON        LGT RAIN  70  68  94 S3        30.10F
$$

ARZ036-302300-
EAST ARKANSAS

CITY           SKY/WX    TMP DP  RH WIND       PRES   REMARKS
WEST MEMPHIS   PTSUNNY   81  61  50 CALM      30.07S
$$

ARZ050-053-066-070-073-302300-
SOUTHWEST ARKANSAS

CITY           SKY/WX    TMP DP  RH WIND       PRES   REMARKS
ARKADELPHIA    LGT RAIN  72  70  93 CALM      30.10S FOG
CAMDEN         RAIN      72  68  88 N3        30.08F
TEXARKANA      LGT RAIN  73  70  90 CALM      30.06F
EL DORADO      LGT RAIN  74  70  87 N7        30.07F
DE QUEEN       RAIN      72  69  90 NE6       30.06R FOG
$$

ARZ056-057-069-302300-
SOUTHEAST ARKANSAS

CITY           SKY/WX    TMP DP  RH WIND       PRES   REMARKS
PINE BLUFF     LGT RAIN  76  61  59 W6        30.10S
STUTTGART      CLOUDY    81  64  57 W7        30.10S
MONTICELLO     LGT RAIN  79  64  60 CALM      30.08S

$$




USA.gov is the U.S. government's official web portal to all federal, state and local government web resources and services.